User: anonymous   Login
Location: Ferchesar
(52.6477°N, 12.4298°E)
Time: 07:18:07
(UTC+01:00)
Language:

Vanguard 1 Rocket - Orbit

View from above orbital plane
View from above orbital plane
View from above satellite
View from above satellite

Ground track
Ground track

The orbit data is extracted from the following two-line orbital elements,

1 00016U 58002A   22333.44167933 -.00000101  00000-0 -11051-3 0  9997
2 00016  34.2628  90.1811 2027192  51.7010 324.9178 10.48812456552804
Epoch (UTC): 29 November 2022 10:36:01
Eccentricity: 0.2027192
inclination: 34.2628°
perigee height: 650 km
apogee height: 4225 km
right ascension of ascending node: 90.1811°
argument of perigee: 51.7010°
revolutions per day: 10.48812456
mean anomaly at epoch: 324.9178°
orbit number at epoch: 55280

The dashed part of the orbit path shows where the satellite is in the earth's shadow,  

DLR